QPF
0.00 0.00 0.00 0.00 0.00 0.00 0.00 0.00 0.00 0.00 0.00 0.00 0.00 0.00 0.00 0.00 0.00 0.00 0.00 0.00 0.00 0.00 0.00 0.00 0.00 0.01 0.02 0.04 0.05 0.04 0.02 0.00 0.00 0.00 0.00 0.00 0.00 0.00 0.00 0.00 0.00 0.00 0.00 0.00 0.00
0.00 0.00 0.00 0.00 0.00 0.00 0.00 0.00 0.00 0.00 0.00 0.00 0.00 0.00 0.00 0.00 0.00 0.00 0.00 0.00 0.00 0.00 0.00 0.00 0.00 0.00 0.00 0.00 0.00 0.02 0.02 0.00 0.00 0.00 0.00 0.00 0.00 0.00 0.00 0.00 0.00 0.00 0.00 0.00 0.00
0.00 0.00 0.00 0.00 0.00 0.00 0.00 0.00 0.00 0.00 0.00 0.00 0.00 0.00 0.00 0.00 0.00 0.00 0.00 0.00 0.00 0.00 0.00 0.00 0.00 0.00 0.00 0.00 0.00 0.00 0.00 0.00 0.00 0.00 0.00 0.00 0.00 0.00 0.00 0.00 0.00 0.00 0.00 0.00 0.00
0.00 0.00 0.00 0.00 0.00 0.00 0.00 0.00 0.00 0.00 0.00 0.00 0.00 0.00 0.00 0.00 0.00 0.00 0.00 0.00 0.00 0.00 0.00 0.01 0.00 0.00 0.00 0.00 0.00 0.00 0.00 0.00 0.00 0.00 0.00 0.00 0.00 0.00 0.00 0.00 0.00 0.00 0.00 0.00 0.00
0.00 0.00 0.00 0.00 0.00 0.00 0.00 0.00 0.00 0.00 0.00 0.00 0.00 0.00 0.00 0.00 0.00 0.00 0.00 0.00 0.00 0.00 0.00 0.00 0.00 0.00 0.00 0.00 0.00 0.00 0.00 0.00 0.00 0.00 0.00 0.00 0.00 0.00 0.00 0.00 0.00 0.00 0.00 0.00 0.00
0.00 0.00 0.00 0.00 0.00 0.00 0.00 0.00 0.00 0.00 0.00 0.00 0.00 0.00 0.00 0.00 0.00 0.00 0.00 0.00 0.00 0.00 0.00 0.00 0.00 0.00 0.00 0.00 0.00 0.00 0.00 0.00 0.00 0.00 0.00 0.00 0.00 0.00 0.00 0.00 0.00 0.00 0.00 0.00 0.00
0.00 0.00 0.00 0.00 0.00 0.00 0.00 0.00 0.00 0.00 0.00 0.00 0.00 0.00 0.00 0.00 0.00 0.00 0.00 0.00 0.00 0.00 0.00 0.00 0.00 0.00 0.00 0.00 0.00 0.00 0.00 0.00 0.00 0.00 0.00 0.00 0.00 0.00 0.00 0.00 0.00 0.00 0.00 0.00 0.00
0.00 0.00 0.00 0.00 0.00 0.00 0.00 0.00 0.00 0.00 0.00 0.00 0.00 0.00 0.00 0.00 0.00 0.00 0.00 0.00 0.00 0.00 0.00 0.00 0.00 0.00 0.00 0.00 0.03 0.00 0.00 0.00 0.00 0.00 0.00 0.00 0.00 0.00 0.00 0.00 0.00 0.00 0.00 0.00 0.00
0.00 0.00 0.00 0.00 0.00 0.00 0.00 0.00 0.00 0.00 0.00 0.00 0.00 0.00 0.00 0.00 0.00 0.00 0.00 0.00 0.00 0.00 0.00 0.00 0.00 0.00 0.00 0.00 0.01 0.00 0.00 0.00 0.00 0.00 0.01 0.00 0.00 0.00 0.00 0.00 0.00 0.00 0.00 0.00 0.00
0.00 0.00 0.00 0.00 0.00 0.00 0.00 0.00 0.00 0.00 0.00 0.00 0.00 0.00 0.00 0.00 0.00 0.00 0.00 0.00 0.00 0.00 0.00 0.00 0.00 0.00 0.00 0.00 0.00 0.00 0.01 0.01 0.01 0.00 0.00 0.01 0.01 0.01 0.00 0.00 0.00 0.00 0.00 0.00 0.00
0.00 0.00 0.00 0.00 0.00 0.00 0.00 0.00 0.00 0.00 0.00 0.00 0.00 0.00 0.00 0.00 0.00 0.00 0.00 0.00 0.00 0.00 0.00 0.00 0.00 0.00 0.00 0.00 0.01 0.00 0.00 0.04 0.07 0.04 0.01 0.00 0.03 0.00 0.00 0.00 0.00 0.00 0.00 0.00 0.00
0.00 0.00 0.00 0.00 0.00 0.00 0.00 0.00 0.00 0.00 0.00 0.00 0.00 0.00 0.00 0.00 0.00 0.00 0.00 0.00 0.00 0.00 0.00 0.00 0.00 0.00 0.00 0.00 0.00 0.00 0.00 0.07 0.04 0.06 0.01 0.00 0.08 0.01 0.00 0.00 0.00 0.00 0.00 0.00 0.00
0.00 0.00 0.00 0.00 0.00 0.00 0.00 0.00 0.00 0.00 0.00 0.00 0.00 0.00 0.00 0.00 0.00 0.00 0.00 0.00 0.00 0.00 0.00 0.00 0.00 0.00 0.00 0.00 0.00 0.00 0.00 0.01 0.02 0.01 0.01 0.01 0.00 0.00 0.01 0.02 0.00 0.00 0.00 0.00 0.00
0.00 0.00 0.00 0.00 0.00 0.00 0.00 0.00 0.00 0.00 0.00 0.00 0.00 0.00 0.00 0.00 0.00 0.00 0.00 0.00 0.00 0.00 0.00 0.00 0.00 0.00 0.00 0.00 0.00 0.00 0.00 0.00 0.01 0.01 0.00 0.01 0.01 0.00 0.01 0.04 0.04 0.00 0.00 0.00 0.00
0.00 0.00 0.00 0.00 0.00 0.00 0.00 0.00 0.00 0.00 0.00 0.00 0.00 0.00 0.00 0.00 0.00 0.00 0.00 0.00 0.00 0.00 0.00 0.00 0.00 0.00 0.00 0.00 0.00 0.00 0.00 0.00 0.00 0.00 0.00 0.00 0.00 0.00 0.00 0.01 0.02 0.04 0.02 0.00 0.00
0.00 0.00 0.00 0.00 0.00 0.00 0.00 0.00 0.00 0.00 0.00 0.00 0.00 0.00 0.00 0.00 0.00 0.00 0.00 0.00 0.00 0.00 0.00 0.00 0.00 0.00 0.00 0.00 0.00 0.00 0.00 0.00 0.00 0.00 0.00 0.00 0.00 0.00 0.00 0.00 0.01 0.02 0.01 0.00 0.00
0.00 0.00 0.00 0.00 0.00 0.00 0.00 0.00 0.00 0.00 0.00 0.00 0.00 0.00 0.00 0.00 0.00 0.00 0.00 0.00 0.00 0.00 0.00 0.00 0.00 0.00 0.00 0.00 0.00 0.00 0.00 0.00 0.00 0.00 0.00 0.00 0.00 0.00 0.00 0.00 0.01 0.03 0.00 0.00 0.00
0.00 0.00 0.00 0.00 0.00 0.00 0.00 0.00 0.00 0.00 0.00 0.00 0.00 0.00 0.00 0.00 0.00 0.00 0.00 0.00 0.00 0.00 0.00 0.00 0.00 0.00 0.00 0.00 0.00 0.00 0.00 0.00 0.00 0.00 0.00 0.00 0.00 0.00 0.00 0.00 0.00 0.00 0.00 0.00 0.00
0.00 0.00 0.00 0.00 0.00 0.00 0.00 0.00 0.00 0.00 0.00 0.00 0.00 0.00 0.00 0.00 0.00 0.00 0.00 0.00 0.00 0.00 0.00 0.00 0.00 0.00 0.00 0.00 0.00 0.00 0.00 0.00 0.00 0.00 0.00 0.00 0.00 0.00 0.00 0.00 0.00 0.00 0.00 0.00 0.00
0.00 0.00 0.00 0.00 0.00 0.00 0.00 0.00 0.00 0.00 0.00 0.00 0.00 0.00 0.00 0.00 0.00 0.00 0.00 0.00 0.00 0.00 0.00 0.00 0.00 0.00 0.00 0.00 0.00 0.00 0.00 0.00 0.00 0.00 0.00 0.00 0.00 0.00 0.00 0.00 0.00 0.00 0.00 0.00 0.00
0.00 0.00 0.00 0.00 0.00 0.00 0.00 0.00 0.00 0.00 0.00 0.00 0.00 0.00 0.00 0.00 0.00 0.00 0.00 0.00 0.00 0.00 0.00 0.00 0.00 0.00 0.00 0.00 0.00 0.00 0.00 0.00 0.00 0.00 0.00 0.00 0.00 0.00 0.00 0.00 0.00 0.00 0.00 0.00 0.00
0.00 0.00 0.00 0.00 0.00 0.00 0.00 0.00 0.00 0.00 0.00 0.00 0.00 0.00 0.00 0.00 0.00 0.00 0.00 0.00 0.00 0.00 0.00 0.00 0.00 0.00 0.00 0.00 0.00 0.00 0.00 0.00 0.00 0.00 0.00 0.00 0.00 0.00 0.00 0.00 0.00 0.00 0.00 0.00 0.00
0.00 0.00 0.00 0.00 0.00 0.00 0.00 0.00 0.00 0.00 0.00 0.00 0.00 0.00 0.00 0.00 0.00 0.00 0.00 0.00 0.00 0.00 0.00 0.00 0.00 0.00 0.00 0.00 0.00 0.00 0.00 0.00 0.00 0.00 0.00 0.00 0.00 0.00 0.00 0.00 0.00 0.00 0.00 0.00 0.00
0.00 0.00 0.00 0.00 0.00 0.00 0.00 0.00 0.00 0.00 0.00 0.00 0.00 0.00 0.00 0.00 0.00 0.00 0.00 0.00 0.00 0.00 0.00 0.00 0.00 0.00 0.00 0.00 0.00 0.00 0.00 0.00 0.00 0.00 0.00 0.00 0.00 0.00 0.00 0.00 0.00 0.00 0.00 0.00 0.00
0.00 0.00 0.00 0.00 0.00 0.00 0.00 0.00 0.00 0.00 0.00 0.00 0.00 0.00 0.00 0.00 0.00 0.00 0.00 0.00 0.00 0.00 0.00 0.00 0.00 0.00 0.00 0.00 0.00 0.00 0.00 0.00 0.00 0.00 0.00 0.00 0.00 0.00 0.00 0.00 0.00 0.00 0.00 0.00 0.00
0.00 0.00 0.00 0.00 0.00 0.00 0.00 0.00 0.00 0.00 0.00 0.00 0.00 0.00 0.00 0.00 0.00 0.00 0.00 0.00 0.00 0.00 0.00 0.00 0.00 0.00 0.00 0.00 0.00 0.00 0.00 0.00 0.00 0.00 0.00 0.00 0.00 0.00 0.00 0.00 0.00 0.00 0.00 0.00 0.00
0.00 0.00 0.00 0.00 0.00 0.00 0.00 0.00 0.00 0.00 0.00 0.00 0.00 0.00 0.00 0.00 0.00 0.00 0.00 0.00 0.00 0.00 0.00 0.00 0.00 0.00 0.00 0.00 0.00 0.00 0.00 0.00 0.00 0.00 0.00 0.00 0.00 0.00 0.00 0.00 0.00 0.00 0.00 0.00 0.00
MSLP
1014.91 1014.57 1014.13 1013.87 1013.58 1013.41 1013.28 1013.12 1012.97 1012.89 1012.85 1012.63 1012.30 1011.86 1011.46 1011.15 1010.25 1010.43 1009.35 1008.05 1007.48 1007.69 1007.68 1007.89 1008.32 1008.78 1011.00 1010.97 1010.59 1009.99 1009.99 1008.46 1007.62 1007.64 1007.20 1007.64 1007.60 1007.71 1007.94 1008.35 1008.87 1009.09 1009.72 1010.30 1011.14
1015.06 1014.66 1014.27 1013.84 1013.62 1013.34 1013.14 1013.04 1012.88 1012.73 1012.63 1012.45 1012.10 1011.66 1011.34 1011.13 1010.35 1009.08 1007.19 1007.30 1007.01 1006.82 1006.68 1006.69 1007.69 1007.80 1008.83 1009.20 1008.90 1008.71 1008.57 1006.75 1005.82 1005.98 1006.49 1006.81 1006.78 1007.30 1008.17 1008.93 1009.23 1009.61 1010.33 1010.51 1010.88
1015.01 1014.66 1014.24 1013.91 1013.59 1013.32 1013.07 1012.84 1012.80 1012.66 1012.49 1012.25 1011.97 1011.55 1011.26 1011.11 1010.03 1007.35 1006.47 1006.69 1006.57 1006.06 1005.67 1005.52 1006.08 1006.89 1008.01 1008.23 1008.36 1007.58 1006.84 1005.51 1005.32 1005.20 1005.38 1006.12 1006.55 1006.91 1007.74 1008.76 1008.71 1009.36 1010.15 1010.61 1010.87
1015.06 1014.64 1014.25 1013.82 1013.55 1013.25 1012.98 1012.79 1012.63 1012.49 1012.40 1012.15 1011.85 1011.49 1011.17 1010.88 1009.03 1006.58 1006.50 1006.23 1006.19 1005.70 1005.75 1005.62 1006.72 1007.79 1008.75 1008.34 1007.56 1006.99 1005.52 1004.84 1005.03 1004.90 1005.35 1005.85 1006.16 1006.87 1007.26 1007.97 1008.37 1008.98 1009.70 1010.42 1011.03
1015.13 1014.64 1014.20 1013.85 1013.56 1013.16 1012.89 1012.73 1012.54 1012.36 1012.22 1012.08 1011.80 1011.49 1011.08 1010.06 1007.57 1006.34 1006.63 1006.52 1006.43 1006.39 1006.14 1006.39 1006.90 1008.34 1008.67 1008.16 1007.04 1006.49 1005.21 1004.49 1004.12 1004.48 1004.86 1005.48 1005.99 1006.54 1007.44 1008.01 1008.78 1009.23 1009.72 1010.46 1010.91
1014.98 1014.71 1014.26 1013.83 1013.45 1013.14 1012.80 1012.49 1012.38 1012.22 1012.06 1011.93 1011.70 1011.54 1010.89 1008.67 1005.59 1005.89 1006.28 1006.99 1006.55 1006.63 1006.39 1006.88 1007.15 1007.76 1007.87 1007.46 1006.85 1006.47 1005.69 1004.80 1004.34 1004.62 1004.80 1005.42 1006.13 1006.58 1007.96 1008.25 1008.89 1009.24 1009.67 1010.10 1010.47
1014.83 1014.44 1014.13 1013.75 1013.44 1013.07 1012.50 1012.25 1012.06 1011.94 1011.86 1011.74 1011.60 1011.24 1010.28 1006.84 1005.18 1005.71 1005.85 1006.23 1006.24 1006.24 1006.36 1006.29 1006.96 1007.23 1007.52 1007.29 1006.77 1006.31 1006.27 1005.29 1005.23 1005.19 1005.20 1005.51 1006.82 1007.04 1007.67 1008.27 1008.80 1009.28 1009.49 1009.77 1009.98
1014.79 1014.31 1013.94 1013.60 1013.14 1012.78 1012.44 1011.92 1011.63 1011.59 1011.54 1011.48 1011.46 1011.04 1008.88 1005.27 1005.46 1005.83 1005.97 1006.15 1005.94 1005.78 1005.49 1005.39 1006.36 1007.27 1007.67 1007.71 1007.33 1007.25 1007.28 1006.73 1005.79 1005.93 1005.55 1005.56 1007.18 1007.62 1007.98 1008.38 1008.96 1009.23 1009.32 1009.48 1009.63
1014.81 1014.29 1013.87 1013.44 1012.97 1012.43 1011.91 1011.52 1011.24 1011.20 1011.32 1011.26 1011.28 1010.49 1007.70 1004.90 1005.10 1004.62 1004.96 1005.18 1005.36 1005.47 1005.39 1005.53 1006.42 1007.35 1007.75 1008.41 1008.54 1008.32 1008.16 1007.48 1006.76 1005.81 1005.88 1006.33 1007.54 1008.08 1008.28 1008.26 1008.74 1009.04 1009.24 1009.25 1009.37
1014.79 1014.17 1013.78 1013.33 1012.78 1012.18 1011.38 1010.80 1010.70 1010.84 1011.23 1011.05 1010.50 1009.98 1006.68 1004.64 1004.01 1003.97 1004.30 1004.48 1004.94 1005.07 1005.17 1005.29 1006.38 1007.28 1008.19 1008.73 1008.75 1008.49 1008.48 1008.14 1007.44 1006.73 1006.41 1006.92 1007.47 1007.86 1008.06 1008.28 1008.39 1008.64 1009.02 1009.21 1009.27
1014.57 1014.12 1013.51 1013.10 1012.69 1012.17 1011.03 1010.45 1010.86 1010.65 1010.21 1008.68 1007.87 1006.93 1005.34 1004.02 1003.49 1003.75 1003.70 1004.14 1004.57 1005.05 1005.48 1005.46 1006.53 1006.85 1006.56 1006.84 1007.16 1007.49 1008.20 1008.72 1007.84 1007.25 1006.69 1006.99 1007.32 1007.53 1008.12 1008.28 1008.50 1008.63 1008.64 1008.90 1009.16
1014.44 1013.94 1013.36 1012.88 1012.61 1012.19 1011.85 1010.64 1008.64 1007.99 1007.95 1006.75 1006.49 1005.92 1004.57 1004.27 1004.21 1003.34 1003.50 1004.49 1004.71 1005.14 1005.31 1005.79 1005.60 1005.11 1005.12 1005.69 1006.71 1007.11 1007.69 1008.01 1006.85 1007.61 1007.38 1007.94 1007.48 1007.30 1007.50 1007.94 1007.84 1007.98 1008.21 1008.22 1008.78
1014.05 1013.53 1012.94 1012.35 1011.98 1011.89 1010.88 1008.74 1007.38 1007.36 1007.54 1005.44 1004.83 1004.70 1003.84 1003.73 1003.68 1003.10 1003.45 1003.88 1004.64 1005.21 1005.31 1005.67 1004.22 1003.47 1003.89 1004.59 1005.65 1006.11 1006.00 1006.17 1006.72 1006.79 1007.53 1007.91 1008.00 1007.56 1007.32 1007.54 1007.58 1007.56 1007.55 1007.78 1007.93
1013.69 1013.16 1012.65 1012.01 1011.90 1011.08 1009.62 1006.74 1006.96 1007.12 1007.58 1005.07 1003.90 1002.95 1002.98 1003.00 1002.94 1002.41 1002.88 1003.55 1004.32 1004.67 1004.71 1004.62 1003.50 1003.37 1002.94 1003.44 1003.81 1004.52 1003.92 1004.62 1006.56 1006.75 1007.42 1007.73 1008.69 1007.61 1007.36 1007.57 1007.12 1007.33 1007.34 1007.22 1007.24
1013.42 1013.04 1012.71 1012.54 1012.42 1010.68 1007.37 1006.94 1006.87 1007.11 1006.85 1003.66 1003.13 1001.63 1002.12 1002.88 1002.56 1002.22 1002.34 1003.14 1003.76 1004.20 1004.82 1003.84 1003.56 1003.08 1002.82 1002.29 1002.58 1003.10 1002.96 1003.83 1004.57 1006.25 1006.93 1007.70 1008.12 1007.67 1007.14 1007.19 1006.73 1006.41 1006.45 1006.55 1006.80
1012.99 1012.53 1012.24 1012.13 1012.11 1008.58 1007.33 1006.75 1006.62 1007.59 1005.55 1003.21 1002.09 1002.16 1002.70 1002.79 1002.70 1002.49 1002.57 1002.91 1003.39 1004.24 1004.42 1004.03 1003.21 1002.87 1002.11 1001.77 1001.91 1002.45 1003.29 1004.22 1005.19 1006.21 1007.20 1006.53 1007.22 1007.41 1006.69 1005.50 1005.95 1005.16 1004.79 1005.27 1005.79
1012.26 1011.97 1012.05 1011.34 1009.48 1007.86 1007.09 1007.25 1007.99 1007.39 1004.24 1003.12 1002.50 1002.60 1003.01 1003.06 1003.06 1003.15 1003.06 1003.58 1004.28 1005.04 1005.57 1004.52 1003.39 1002.49 1002.01 1002.08 1002.09 1002.80 1004.73 1006.02 1007.28 1007.82 1007.34 1006.10 1006.34 1005.66 1005.03 1004.83 1004.45 1003.03 1003.71 1004.13 1004.71
1010.83 1010.51 1010.22 1009.48 1008.19 1008.10 1007.84 1008.52 1008.28 1005.86 1004.20 1002.25 1002.35 1002.72 1003.22 1003.14 1003.19 1003.24 1003.62 1004.23 1004.39 1005.10 1006.00 1005.78 1004.06 1002.24 1001.44 1001.87 1002.50 1003.45 1005.08 1006.77 1007.84 1008.48 1007.13 1005.96 1005.40 1004.15 1003.30 1004.09 1003.58 1003.18 1003.68 1004.11 1004.26
1009.97 1009.72 1009.61 1007.10 1007.85 1008.45 1008.78 1009.04 1007.33 1005.30 1003.61 1002.83 1002.64 1003.05 1003.21 1002.87 1003.00 1003.45 1003.84 1004.09 1003.74 1004.33 1005.36 1005.25 1004.06 1001.84 1001.06 1001.29 1002.27 1003.44 1004.71 1005.58 1007.00 1007.65 1007.70 1006.11 1004.81 1004.34 1004.31 1004.58 1004.25 1004.37 1004.32 1003.51 1003.61
1010.72 1009.56 1007.73 1005.74 1006.73 1007.88 1008.84 1008.66 1006.55 1004.39 1003.45 1002.67 1002.80 1003.00 1003.33 1003.16 1003.51 1003.55 1003.36 1002.50 1002.86 1003.00 1003.43 1004.33 1004.12 1002.59 1001.64 1001.50 1002.14 1002.74 1003.83 1005.67 1007.34 1008.23 1008.13 1006.69 1005.55 1005.02 1005.00 1005.15 1005.45 1005.33 1004.04 1002.86 1002.55
1010.69 1009.29 1005.88 1005.37 1006.39 1008.20 1008.93 1007.81 1005.65 1003.79 1003.29 1002.55 1002.64 1002.85 1003.03 1003.10 1003.02 1002.89 1002.58 1001.82 1001.98 1001.90 1002.80 1003.77 1004.47 1003.58 1002.64 1002.59 1002.67 1003.15 1004.03 1005.67 1007.22 1007.88 1008.18 1007.50 1006.08 1004.38 1004.22 1004.78 1005.13 1004.70 1004.47 1004.12 1004.20
1011.37 1009.21 1005.85 1005.43 1007.31 1008.25 1008.21 1006.67 1005.32 1003.84 1002.88 1002.71 1002.09 1002.48 1002.90 1002.96 1002.98 1002.87 1002.48 1002.02 1001.35 1001.47 1002.98 1003.43 1004.46 1004.83 1004.12 1003.17 1002.87 1003.28 1004.23 1005.44 1007.34 1007.94 1007.78 1007.23 1006.53 1005.16 1005.23 1005.42 1004.77 1005.57 1005.54 1005.67 1005.61
1012.57 1009.80 1006.03 1005.84 1007.34 1008.19 1007.46 1006.34 1005.27 1004.06 1003.33 1002.85 1002.62 1002.87 1003.25 1003.38 1003.58 1003.41 1002.70 1002.33 1001.40 1002.07 1002.70 1003.23 1004.70 1005.45 1005.00 1004.64 1003.74 1004.20 1004.82 1005.21 1005.98 1006.59 1007.26 1007.43 1007.45 1006.61 1005.57 1006.05 1006.44 1006.49 1007.01 1007.15 1007.10
1012.79 1010.75 1008.18 1007.16 1007.43 1007.66 1007.47 1006.36 1005.09 1003.39 1002.76 1002.88 1002.98 1003.04 1003.88 1004.32 1004.59 1004.82 1004.22 1003.26 1002.75 1002.91 1003.12 1003.35 1005.49 1006.25 1006.29 1006.04 1005.63 1005.43 1005.26 1005.34 1006.09 1006.88 1007.09 1006.77 1007.35 1007.00 1006.55 1006.64 1007.34 1007.75 1007.75 1007.88 1008.10
1012.74 1012.05 1010.80 1009.54 1008.64 1008.21 1007.48 1006.29 1005.08 1003.89 1003.17 1003.27 1003.87 1004.47 1004.90 1005.83 1006.26 1006.47 1005.78 1005.03 1004.16 1004.27 1004.19 1004.76 1006.22 1006.64 1006.90 1006.58 1005.93 1005.85 1005.81 1005.84 1006.33 1006.44 1006.78 1006.47 1006.39 1006.62 1006.50 1006.76 1007.54 1007.93 1008.50 1008.74 1008.94
1013.49 1013.14 1011.80 1010.75 1009.67 1008.56 1007.25 1006.15 1005.54 1004.59 1004.50 1004.91 1005.48 1005.98 1006.03 1007.29 1007.71 1007.64 1007.24 1006.78 1006.59 1005.99 1006.20 1006.57 1007.55 1007.71 1007.98 1007.35 1006.73 1006.50 1006.40 1006.41 1006.55 1007.20 1007.17 1006.86 1007.03 1007.13 1007.11 1007.51 1008.22 1008.42 1008.28 1008.52 1008.83
1014.18 1013.24 1012.88 1011.42 1010.45 1009.30 1008.07 1006.71 1006.22 1005.55 1006.00 1005.77 1006.29 1006.66 1007.26 1007.69 1007.59 1007.40 1007.56 1007.37 1007.25 1007.23 1007.49 1007.90 1008.45 1009.12 1009.14 1008.49 1007.77 1007.44 1007.29 1007.42 1008.27 1008.32 1008.37 1008.13 1008.10 1007.70 1008.15 1008.67 1009.40 1009.51 1009.27 1009.42 1009.57
Thickness
5787 5791 5794 5797 5799 5801 5801 5801 5802 5803 5803 5805 5808 5813 5818 5819 5828 5824 5823 5838 5847 5849 5849 5843 5834 5824 5805 5799 5803 5808 5774 5775 5788 5790 5800 5810 5807 5824 5827 5815 5818 5822 5816 5820 5824
5787 5791 5795 5798 5800 5803 5804 5804 5805 5806 5806 5808 5812 5816 5820 5821 5826 5826 5851 5852 5857 5860 5856 5846 5831 5837 5814 5810 5812 5798 5777 5800 5822 5824 5813 5817 5821 5821 5814 5808 5808 5812 5818 5824 5825
5788 5791 5795 5799 5802 5804 5806 5807 5807 5809 5809 5812 5814 5818 5822 5824 5827 5839 5862 5861 5865 5869 5869 5864 5856 5845 5820 5820 5814 5813 5797 5827 5833 5838 5837 5825 5822 5832 5814 5800 5815 5809 5814 5820 5822
5787 5791 5795 5799 5802 5806 5808 5809 5810 5811 5812 5814 5817 5820 5823 5825 5808 5855 5862 5868 5869 5873 5869 5862 5844 5824 5808 5806 5824 5807 5833 5841 5837 5840 5833 5825 5833 5822 5826 5821 5832 5830 5827 5824 5820
5786 5790 5795 5798 5802 5805 5808 5810 5811 5813 5814 5816 5818 5821 5825 5821 5830 5863 5861 5868 5867 5864 5859 5850 5837 5816 5803 5810 5825 5820 5836 5847 5851 5845 5841 5840 5832 5828 5823 5833 5835 5833 5831 5824 5823
5786 5790 5794 5798 5802 5805 5808 5811 5812 5814 5816 5818 5820 5822 5823 5812 5869 5867 5864 5862 5862 5858 5856 5848 5841 5833 5820 5821 5822 5833 5834 5846 5850 5844 5844 5831 5829 5831 5826 5835 5830 5831 5829 5830 5829
5786 5792 5795 5799 5802 5806 5810 5812 5815 5816 5818 5820 5821 5825 5821 5832 5874 5869 5869 5862 5866 5860 5849 5858 5854 5838 5834 5823 5842 5837 5820 5835 5839 5843 5837 5840 5814 5816 5832 5833 5827 5828 5832 5834 5837
5786 5791 5796 5800 5804 5808 5811 5815 5818 5819 5820 5821 5822 5823 5819 5872 5872 5866 5865 5859 5866 5870 5867 5875 5863 5842 5831 5836 5831 5821 5811 5801 5832 5834 5844 5837 5794 5821 5832 5828 5822 5827 5833 5838 5841
5784 5790 5795 5800 5805 5810 5815 5819 5821 5822 5821 5822 5822 5822 5821 5876 5861 5874 5873 5858 5861 5864 5869 5870 5852 5831 5829 5807 5796 5802 5788 5801 5810 5841 5839 5827 5802 5820 5827 5829 5824 5828 5832 5838 5840
5782 5789 5794 5799 5805 5811 5819 5824 5824 5824 5822 5823 5826 5815 5842 5848 5869 5875 5878 5872 5857 5857 5852 5850 5833 5811 5805 5794 5778 5790 5787 5797 5798 5824 5834 5817 5815 5827 5830 5827 5828 5830 5832 5835 5838
5781 5786 5793 5798 5803 5809 5819 5824 5815 5812 5820 5825 5831 5833 5850 5869 5880 5868 5877 5866 5860 5847 5817 5839 5811 5798 5816 5818 5822 5819 5803 5787 5805 5828 5826 5821 5820 5828 5830 5829 5824 5828 5831 5833 5836
5779 5785 5791 5797 5801 5805 5809 5814 5826 5835 5811 5840 5842 5844 5859 5863 5843 5862 5876 5841 5837 5816 5829 5819 5805 5833 5845 5835 5824 5818 5807 5797 5817 5819 5821 5808 5818 5837 5836 5832 5833 5832 5834 5839 5838
5781 5786 5793 5799 5803 5805 5812 5826 5845 5842 5809 5835 5847 5842 5851 5858 5841 5849 5861 5848 5830 5817 5818 5807 5833 5859 5848 5836 5820 5815 5812 5814 5811 5826 5821 5814 5810 5819 5838 5838 5839 5839 5843 5845 5845
5784 5789 5794 5801 5805 5809 5816 5846 5847 5844 5780 5812 5834 5849 5859 5859 5838 5872 5870 5851 5833 5818 5826 5820 5848 5843 5841 5836 5835 5810 5847 5845 5816 5813 5787 5818 5773 5811 5824 5827 5837 5836 5836 5843 5850
5784 5788 5792 5794 5793 5808 5837 5844 5847 5832 5747 5836 5835 5880 5863 5841 5848 5855 5876 5855 5827 5827 5829 5822 5831 5832 5828 5844 5854 5833 5862 5853 5847 5816 5811 5806 5788 5808 5824 5819 5831 5840 5842 5847 5850
5785 5790 5794 5796 5794 5824 5837 5842 5837 5774 5753 5823 5847 5839 5833 5840 5842 5853 5852 5864 5855 5832 5835 5830 5855 5848 5848 5862 5865 5865 5846 5832 5823 5811 5784 5813 5799 5795 5805 5834 5831 5849 5858 5860 5859
5788 5792 5793 5798 5812 5828 5837 5825 5768 5750 5824 5819 5824 5830 5824 5824 5830 5833 5830 5821 5806 5795 5788 5815 5830 5848 5860 5844 5852 5847 5807 5767 5774 5766 5780 5821 5807 5810 5838 5840 5853 5871 5873 5872 5872
5796 5800 5804 5812 5822 5825 5823 5786 5755 5792 5807 5842 5832 5826 5812 5823 5824 5827 5818 5804 5820 5810 5787 5782 5782 5840 5862 5845 5831 5835 5808 5767 5763 5757 5782 5815 5796 5827 5862 5861 5873 5877 5871 5871 5872
5798 5801 5804 5826 5822 5817 5797 5755 5766 5794 5825 5822 5823 5809 5807 5825 5828 5823 5811 5807 5825 5823 5792 5779 5796 5855 5863 5864 5851 5833 5812 5822 5798 5792 5779 5795 5832 5846 5849 5846 5856 5853 5860 5869 5874
5784 5795 5808 5831 5825 5809 5777 5761 5785 5822 5826 5828 5805 5812 5799 5808 5808 5810 5810 5838 5834 5842 5840 5822 5796 5841 5858 5865 5861 5845 5846 5801 5781 5771 5773 5793 5803 5805 5826 5831 5840 5842 5856 5874 5887
5780 5784 5816 5828 5819 5785 5759 5768 5800 5828 5829 5820 5808 5807 5812 5812 5816 5804 5816 5844 5851 5851 5844 5828 5808 5816 5842 5833 5824 5828 5817 5808 5796 5781 5765 5762 5788 5836 5836 5840 5838 5848 5858 5865 5867
5761 5764 5811 5818 5768 5762 5763 5790 5808 5814 5828 5819 5829 5821 5813 5816 5815 5811 5815 5830 5854 5853 5822 5837 5802 5789 5814 5842 5850 5838 5827 5807 5771 5785 5779 5776 5783 5837 5837 5840 5850 5844 5848 5850 5855
5741 5757 5801 5801 5746 5749 5768 5785 5796 5799 5802 5812 5813 5817 5818 5812 5805 5813 5823 5842 5853 5840 5830 5835 5796 5770 5789 5808 5826 5817 5820 5820 5797 5789 5786 5768 5776 5830 5837 5832 5835 5833 5832 5835 5839
5734 5739 5763 5773 5765 5761 5764 5768 5779 5809 5807 5810 5811 5819 5803 5801 5804 5792 5800 5827 5839 5836 5834 5829 5788 5778 5763 5783 5801 5800 5809 5814 5796 5772 5779 5783 5790 5811 5822 5823 5821 5822 5826 5828 5828
5727 5729 5741 5731 5749 5756 5760 5768 5771 5778 5802 5801 5792 5787 5792 5777 5774 5773 5787 5798 5820 5816 5824 5810 5787 5796 5792 5798 5804 5806 5803 5805 5795 5804 5782 5802 5803 5805 5817 5821 5820 5822 5821 5821 5820
5709 5710 5721 5723 5735 5747 5757 5765 5764 5775 5774 5771 5765 5772 5770 5757 5764 5763 5771 5778 5780 5798 5790 5792 5772 5785 5774 5785 5790 5794 5796 5798 5798 5789 5789 5800 5797 5802 5810 5817 5810 5812 5818 5816 5815
5701 5708 5708 5714 5723 5731 5736 5752 5754 5761 5761 5770 5765 5760 5755 5762 5775 5778 5776 5776 5778 5779 5772 5770 5760 5752 5752 5764 5773 5761 5777 5780 5771 5774 5774 5772 5788 5798 5793 5796 5793 5796 5802 5800 5802